Theta_e
347 348 348 345 345 346 343 346 347 346 343 339 342 341 340 340 338 341 337 338 343 343 342 341 341 336 335 332 329 329 327 325 322 326 331 337 337 336 346 348 345 342 348
348 347 346 345 344 341 340 340 341 340 342 345 342 337 337 338 342 343 341 341 340 337 338 337 335 337 333 330 330 329 328 326 324 319 321 325 328 331 340 346 347 351 347
345 339 339 338 337 339 339 341 341 341 340 342 340 338 337 337 338 337 336 336 335 338 337 336 335 335 333 334 333 332 331 332 327 324 323 323 324 325 327 332 344 347 348
342 341 338 338 340 343 343 341 342 341 340 340 339 337 337 334 333 334 334 331 331 334 339 339 338 335 334 334 335 333 332 328 326 324 322 321 320 323 323 326 327 338 344
343 342 339 342 341 340 339 340 340 340 338 337 337 336 335 332 330 327 329 331 330 333 334 336 336 337 338 336 334 331 330 327 326 324 322 320 319 319 319 323 325 331 330
340 338 339 337 337 336 334 334 333 333 336 333 332 330 333 328 327 327 323 321 319 322 321 320 322 326 326 330 330 330 332 327 322 322 321 319 318 320 322 322 323 324 322
339 339 337 335 334 334 333 330 326 325 325 324 324 322 325 323 323 323 323 314 314 314 314 316 318 321 323 320 323 327 328 331 331 324 320 320 320 323 324 324 325 324 326
334 334 335 333 331 329 324 322 321 321 319 321 319 318 318 319 321 320 322 312 311 312 312 313 313 314 312 310 310 311 314 319 322 324 321 321 323 323 320 322 322 325 328
331 330 329 326 323 322 320 319 318 317 315 314 316 314 315 317 321 319 316 311 308 308 308 307 309 309 312 312 305 303 304 307 316 320 321 323 324 324 324 320 316 318 320
327 324 323 322 320 318 317 315 315 315 316 313 314 313 317 313 320 318 313 309 304 305 305 306 314 309 313 310 304 302 302 303 305 307 309 311 315 315 320 315 315 314 317
324 322 319 317 316 315 314 314 313 313 313 312 313 315 313 315 314 316 313 304 303 303 303 303 305 312 310 308 308 303 303 306 307 305 305 306 308 310 311 312 313 314 312
320 318 316 314 314 315 311 311 313 313 312 312 312 309 306 308 313 314 312 310 309 302 301 302 303 308 307 307 307 308 308 309 305 304 304 304 306 308 311 312 313 314 316
316 315 314 314 313 313 311 311 311 312 312 305 305 302 302 305 305 313 311 311 311 305 303 307 309 307 307 306 307 308 309 305 303 302 303 303 306 309 310 311 313 314 315
312 312 312 313 312 314 311 312 309 308 305 305 305 303 302 303 301 301 301 301 304 304 305 302 304 306 307 306 305 304 304 304 305 304 304 306 309 309 309 312 312 313 316
310 309 310 311 311 309 312 310 310 309 309 307 304 303 301 298 299 300 299 299 300 301 301 299 299 299 300 301 303 304 303 304 305 305 304 303 304 304 306 309 310 313 312
309 308 308 306 306 307 308 307 310 308 306 300 300 302 302 302 300 299 298 298 298 299 295 296 298 299 301 302 302 302 304 305 303 304 305 304 302 302 303 306 305 306 308
308 309 308 308 308 304 304 304 302 304 301 299 299 300 301 300 300 297 296 296 297 298 296 300 300 301 301 302 302 302 302 303 304 302 300 301 303 303 303 304 304 304 306
310 313 308 309 306 304 304 303 304 303 302 301 302 301 300 299 298 295 296 296 301 303 303 301 301 301 301 301 302 302 302 302 302 301 301 302 302 302 301 302 302 301 302
312 311 311 307 306 306 304 304 304 302 301 300 301 301 301 299 298 298 298 301 302 302 302 302 303 302 302 302 302 302 302 301 301 301 300 300 299 300 301 302 302 301 301
309 315 311 307 305 303 304 303 301 300 300 299 299 299 301 300 301 303 303 304 303 302 302 302 303 303 303 303 302 301 301 301 301 300 300 300 300 300 300 302 302 302 300
307 306 314 305 303 303 302 302 301 300 299 299 299 300 301 302 302 303 304 303 303 303 303 303 303 303 303 303 303 302 301 300 300 300 300 299 299 299 301 302 302 302 302
308 306 306 302 304 303 302 302 300 300 300 299 299 300 300 303 302 301 303 304 304 304 304 304 303 303 303 303 303 302 301 300 300 300 300 299 299 299 300 300 302 302 304
307 305 302 303 305 306 303 301 300 300 299 300 301 301 304 304 302 303 303 304 304 305 305 305 304 303 303 299 297 299 302 301 302 302 300 300 299 299 299 301 301 301 303
305 303 303 303 304 303 302 301 301 300 301 302 301 300 303 302 302 302 304 304 304 305 305 305 304 301 298 296 294 295 296 304 304 302 302 300 299 298 300 301 301 303 305
303 303 303 303 304 303 302 302 302 302 302 305 304 302 304 302 300 303 304 304 304 304 304 303 303 301 299 297 295 294 294 289 298 299 302 301 299 299 300 301 302 304 305
304 304 303 304 304 304 303 302 302 303 303 305 304 302 302 301 302 303 304 304 304 304 304 303 302 300 298 297 296 293 288 287 291 289 300 300 299 299 299 302 303 303 303
Wind_Speed
8 7 6 3 3 5 5 4 5 4 2 1 1 5 6 2 4 7 5 18 9 6 2 6 4 1 2 3 2 2 3 2 2 4 2 2 3 7 9 6 5 7 7
6 6 6 5 6 6 6 5 4 3 4 5 3 4 2 2 3 4 6 1 1 3 7 4 2 3 2 2 2 2 1 0 2 3 3 3 4 6 9 8 8 8 7
7 7 7 7 6 6 5 5 4 1 0 1 2 1 1 2 1 2 2 4 3 4 6 5 4 3 2 2 2 4 3 1 1 1 4 3 4 3 7 8 8 10 7
6 6 6 5 4 4 6 7 7 7 7 6 5 5 4 3 1 2 4 4 5 4 5 6 6 5 4 5 4 4 4 3 3 3 4 4 3 4 3 3 8 5 7
7 6 6 6 6 7 7 6 5 5 4 4 4 3 3 6 5 6 7 6 5 5 6 6 7 11 14 8 3 5 5 3 3 4 3 3 3 4 6 6 6 7 9
7 7 7 6 6 6 7 6 7 6 7 7 7 7 6 5 9 11 9 6 6 6 6 6 5 8 8 9 10 11 6 4 4 3 3 5 5 5 4 4 4 6 5
10 7 6 6 6 6 5 6 6 6 6 6 6 6 5 4 6 8 9 5 5 6 6 6 7 8 10 8 10 12 9 9 8 5 5 5 5 5 5 6 5 4 6
8 6 4 5 6 5 6 5 5 4 4 3 5 4 4 1 3 4 6 4 4 5 6 7 6 6 7 9 8 8 8 8 7 5 5 5 4 5 4 4 7 10 9
6 5 5 5 5 5 5 4 3 3 4 3 3 4 3 3 5 3 2 2 4 5 5 6 6 2 8 16 8 7 8 8 10 16 15 10 7 8 8 5 7 8 10
7 6 5 4 5 4 4 3 3 3 2 3 5 5 6 5 7 6 4 1 3 3 5 5 8 1 7 12 7 7 10 8 6 9 11 12 12 10 14 10 8 9 10
7 6 6 4 2 4 3 2 2 3 5 5 5 6 6 5 2 6 5 4 2 1 3 3 4 9 9 12 15 10 11 13 15 10 9 9 10 10 9 9 10 10 11
6 6 5 3 2 2 1 3 4 4 5 6 4 4 3 2 5 6 8 5 5 3 5 4 6 13 13 15 13 18 22 20 9 8 8 8 9 9 9 9 11 11 12
5 4 3 3 3 4 4 5 4 4 2 2 2 1 3 4 4 5 7 2 7 4 4 8 15 14 15 14 19 21 20 9 8 7 8 8 8 9 10 9 10 12 14
4 2 3 3 4 4 4 4 3 3 2 3 3 4 3 5 4 4 3 4 9 9 12 9 15 19 20 16 13 10 7 8 7 8 8 7 6 7 6 8 9 8 7
3 3 4 3 2 3 4 5 4 5 5 5 4 4 5 4 1 1 2 5 6 9 11 7 7 6 7 8 8 8 8 8 7 6 6 5 5 4 6 7 4 6 7
3 3 3 3 4 4 3 4 7 7 8 14 11 7 2 6 3 6 10 12 14 16 3 6 8 8 9 9 8 9 8 11 8 8 8 6 5 4 6 8 4 5 5
1 4 3 3 4 2 3 2 3 10 14 10 10 9 7 1 6 9 12 15 16 12 4 7 8 9 10 10 9 10 10 9 9 9 8 10 9 7 6 8 6 7 7
4 8 4 4 3 3 4 3 5 4 3 1 2 3 5 6 8 10 13 9 8 8 9 9 10 10 10 10 10 10 10 10 9 9 9 10 9 8 8 8 7 7 7
4 5 4 3 3 3 4 5 4 4 3 2 3 2 5 7 8 11 10 5 10 10 10 10 10 11 11 11 10 10 11 10 10 9 9 9 9 10 10 9 9 8 9
3 6 3 4 1 5 4 4 4 3 3 2 3 4 4 4 6 9 6 10 10 10 10 11 12 12 12 12 11 10 10 10 10 9 9 9 9 9 10 9 8 8 7
3 4 7 2 5 4 3 3 2 1 2 2 3 5 10 6 7 6 9 11 11 11 12 12 12 13 12 12 11 10 11 10 10 10 9 9 8 9 10 8 8 8 9
4 4 3 2 4 3 2 3 1 1 1 1 4 5 11 3 4 5 10 11 11 12 12 13 13 13 12 13 12 11 11 11 10 9 8 9 8 9 8 9 8 7 9
5 5 2 3 3 3 3 1 2 2 1 4 5 5 3 4 4 7 9 10 10 11 12 13 12 11 11 8 11 13 11 10 9 8 9 8 8 8 8 8 7 8 8
5 2 4 3 2 1 0 4 3 3 5 5 5 4 3 3 5 7 10 10 10 12 12 12 11 14 11 10 9 9 9 8 9 9 11 9 7 8 8 8 8 9 8
2 4 4 3 2 1 3 3 4 5 5 5 4 3 2 4 5 8 10 10 11 12 14 13 11 13 14 15 14 14 12 12 13 10 8 9 9 10 8 7 7 8 4
2 4 3 3 3 3 2 3 5 6 6 4 3 1 2 5 7 9 9 12 12 13 16 12 14 17 17 13 13 13 11 13 10 14 10 7 7 6 5 7 6 3 5
Wind_Direction
62 63 78 78 62 58 76 68 47 50 48 142 101 109 95 136 222 70 254 267 295 291 201 172 171 132 28 37 40 72 103 127 170 298 282 278 248 262 278 269 256 250 248
95 101 93 67 47 49 49 45 61 40 45 46 93 91 58 176 74 176 182 269 309 329 333 358 86 75 38 1 21 4 310 111 147 261 273 303 302 291 284 258 248 247 251
92 89 76 68 65 63 46 50 33 358 276 58 90 138 31 75 345 82 136 86 56 11 330 353 356 16 321 313 303 307 294 293 233 253 282 259 273 299 323 309 272 255 246
114 113 104 101 89 75 78 60 50 46 52 60 54 69 108 114 67 332 351 348 354 345 343 345 323 315 318 314 306 283 268 272 261 242 268 273 252 295 285 308 322 301 283
91 92 91 67 57 61 60 51 58 51 53 53 39 40 72 85 54 39 33 21 5 354 9 3 354 344 340 319 298 286 278 253 251 251 249 279 288 299 292 295 287 312 310
110 91 98 86 77 73 62 54 44 35 32 25 38 46 57 69 59 50 41 22 11 4 349 332 325 322 319 338 319 310 297 279 265 238 242 235 254 251 269 264 284 306 310
87 84 84 86 75 67 62 51 41 29 29 19 19 41 54 94 86 69 46 30 10 350 342 339 338 339 354 355 336 322 309 293 257 246 251 252 269 261 276 290 283 265 275
94 89 89 89 83 67 67 53 36 16 11 5 356 22 25 87 138 67 53 38 20 0 5 359 3 8 17 18 2 356 345 324 295 278 263 258 277 318 299 277 281 284 275
102 89 71 77 85 84 72 52 25 11 357 359 353 354 330 300 282 184 120 19 18 5 12 358 338 13 23 3 355 334 321 316 321 330 335 316 258 269 266 289 294 297 290
112 107 91 77 89 85 65 50 355 353 324 333 316 296 280 285 295 179 134 64 51 12 349 341 349 294 333 348 341 318 303 292 284 301 299 299 293 287 286 274 272 267 274
104 102 89 57 49 105 60 358 305 298 308 297 291 288 335 322 179 147 140 100 104 292 279 281 269 281 298 308 305 299 284 295 297 287 281 280 276 271 268 260 257 256 263
110 117 117 98 77 124 173 280 281 277 282 308 324 15 346 43 152 174 149 170 214 224 264 267 271 276 278 281 286 288 290 290 284 274 273 276 278 273 266 263 258 253 250
108 116 153 187 224 218 237 264 282 287 203 236 93 308 286 287 6 192 168 267 322 311 279 300 311 302 291 292 292 290 292 282 268 262 258 262 262 272 279 279 279 270 265
113 180 252 233 250 245 243 253 255 248 241 244 245 260 279 49 32 48 5 321 321 326 322 308 298 291 287 284 290 286 284 281 260 254 253 253 265 275 287 284 273 277 292
37 317 304 303 298 271 265 244 252 257 206 217 248 53 86 47 309 220 301 315 304 296 310 301 294 288 287 287 288 287 285 279 276 272 264 260 274 267 280 282 274 295 291
10 8 4 358 322 324 334 334 324 255 293 81 98 114 120 161 204 327 320 303 298 296 300 291 290 289 291 294 290 286 286 291 292 298 297 281 268 260 269 275 277 272 266
348 307 312 314 308 313 323 308 303 45 91 99 106 99 76 293 294 295 293 291 290 296 245 275 285 290 291 290 288 286 286 283 287 286 291 287 281 278 279 278 268 275 277
264 276 260 250 241 287 273 318 48 80 72 334 308 115 215 246 266 276 290 300 303 291 291 291 286 280 278 276 276 276 278 279 277 274 282 282 283 281 280 277 274 271 280
274 274 274 263 277 295 52 75 71 70 45 11 352 6 232 250 287 283 289 300 316 305 297 291 284 279 274 271 268 267 266 267 268 267 267 274 282 278 276 278 280 267 276
323 328 276 274 324 87 79 75 67 54 21 355 316 277 289 322 313 308 302 303 312 302 294 289 286 281 275 269 262 255 255 256 258 256 257 259 266 272 272 269 273 278 280
325 321 304 299 93 111 101 94 105 108 286 329 292 281 285 301 299 297 307 312 310 302 296 293 290 286 280 275 268 250 245 246 249 251 252 252 254 263 256 257 267 275 272
304 288 310 108 101 85 70 95 33 309 116 318 285 280 281 283 290 302 310 312 308 302 297 294 289 288 289 278 267 260 251 241 239 242 245 247 250 257 262 260 258 270 272
296 316 66 63 92 48 91 110 275 277 233 257 275 282 288 285 287 299 308 300 306 308 302 300 298 299 307 315 291 299 253 242 234 228 238 238 240 247 252 260 257 261 267
290 74 69 45 29 44 104 297 294 223 226 261 278 289 300 289 289 301 299 297 302 302 302 306 306 305 302 302 295 284 303 270 232 226 228 233 236 240 245 249 261 261 263
17 66 43 357 319 303 323 343 316 292 275 269 277 288 315 299 286 283 288 300 299 297 303 306 302 304 306 302 297 287 275 303 261 218 220 222 232 241 244 246 251 255 272
12 69 28 347 345 336 359 312 300 280 281 271 286 307 291 282 273 284 298 305 304 304 304 301 299 299 298 296 285 279 275 274 273 234 223 214 219 232 263 266 259 258 267